FW8937 Weather Reports


time (UTC)temp
C
wind
direction
speed
KPH
gust
KPH
rain 1hr
cm
rain 24hr
cm
rain mn
cm
humidity
%
barometer
mb
20220812181032 25 60 11.3 22.5 0.00 0.00 0.00 39 1032.3
20220812180757 24 109 8.0 19.3 0.00 0.00 0.00 42 1032.3
20220812180647 24 80 8.0 19.3 0.00 0.00 0.00 42 1032.3
20220812175513 24 66 9.7 19.3 0.00 0.00 0.00 43 1032.3
20220812175008 25 101 9.7 22.5 0.00 0.00 0.00 40 1032.3
20220812174502 25 57 9.7 22.5 0.00 0.00 0.00 40 1032.3
20220812174228 23 57 9.7 19.3 0.00 0.00 0.00 44 1032.4
20220812173450 23 67 8.0 19.3 0.00 0.00 0.00 41 1032.4
20220812172943 24 105 6.4 14.5 0.00 0.00 0.00 41 1032.5
20220812172439 23 111 6.4 14.5 0.00 0.00 0.00 44 1032.5
20220812171934 23 108 4.8 14.5 0.00 0.00 0.00 47 1032.5
20220812171426 23 86 8.0 17.7 0.00 0.00 0.00 42 1032.6
20220812170920 23 132 9.7 17.7 0.00 0.00 0.00 44 1032.6
20220812170644 22 109 9.7 16.1 0.00 0.00 0.00 45 1032.6
20220812165908 22 108 8.0 17.7 0.00 0.00 0.00 45 1032.8
20220812165401 22 0 8.0 17.7 0.00 0.00 0.00 43 1032.8
20220812164902 23 43 6.4 17.7 0.00 0.00 0.00 46 1032.8
20220812164856 23 135 6.4 16.1 0.00 0.00 0.00 43 1032.8
20220812164753 22 103 6.4 17.7 0.00 0.00 0.00 45 1032.9
20220812164240 22 167 8.0 17.7 0.00 0.00 0.00 47 1032.8
20220812162834 21 76 6.4 17.7 0.00 0.00 0.00 47 1032.8
20220812162326 22 94 8.0 17.7 0.00 0.00 0.00 45 1032.8
20220812162150 21 88 9.7 17.7 0.00 0.00 0.00 46 1032.8
20220812162051 21 115 6.4 16.1 0.00 0.00 0.00 48 1032.9
20220812161416 21 100 6.4 17.7 0.00 0.00 0.00 45 1032.9
20220812160302 21 154 6.4 14.5 0.00 0.00 0.00 48 1032.9
20220812160028 21 53 4.8 14.5 0.00 0.00 0.00 47 1032.9
20220812155250 21 89 4.8 16.1 0.00 0.00 0.00 49 1032.9
20220812154748 20 106 8.0 19.3 0.00 0.00 0.00 45 1033.0
20220812154744 21 56 6.4 16.1 0.00 0.00 0.00 46 1032.9
20220812154635 20 94 8.0 19.3 0.00 0.00 0.00 49 1033.0
20220812153458 20 111 4.8 12.9 0.00 0.00 0.00 48 1032.9
20220812152958 20 76 6.4 12.9 0.00 0.00 0.00 50 1032.9
20220812152454 20 75 6.4 12.9 0.00 0.00 0.00 48 1032.8
20220812151722 20 160 6.4 14.5 0.00 0.00 0.00 49 1032.9
20220812151500 19 104 8.0 16.1 0.00 0.00 0.00 49 1032.8
20220812151223 19 88 8.0 14.5 0.00 0.00 0.00 48 1032.9
20220812150840 18 70 6.4 14.5 0.00 0.00 0.00 49 1032.8
20220812150223 18 93 8.0 16.1 0.00 0.00 0.00 50 1032.8
20220812145456 18 144 6.4 17.7 0.00 0.00 0.00 50 1032.8
20220812144728 18 161 6.4 16.1 0.00 0.00 0.00 50 1032.6
20220812144723 18 84 6.4 17.7 0.00 0.00 0.00 51 1032.8
20220812143724 18 115 8.0 17.7 0.00 0.00 0.00 52 1032.6
20220812143225 17 137 6.4 17.7 0.00 0.00 0.00 54 1032.6
20220812143219 17 128 8.0 17.7 0.00 0.00 0.00 53 1032.6
20220812142218 17 105 6.4 16.1 0.00 0.00 0.00 55 1032.6
20220812141719 17 102 8.0 16.1 0.00 0.00 0.00 55 1032.5
20220812141226 17 115 6.4 12.9 0.00 0.00 0.00 54 1032.4
20220812141220 17 92 6.4 16.1 0.00 0.00 0.00 55 1032.5
20220812140219 17 131 8.0 14.5 0.00 0.00 0.00 53 1032.4
20220812135724 17 68 4.8 14.5 0.00 0.00 0.00 52 1032.3
20220812135720 17 86 6.4 14.5 0.00 0.00 0.00 53 1032.3
20220812134715 17 124 1.6 6.4 0.00 0.00 0.00 51 1032.1
20220812134221 16 101 1.6 4.8 0.00 0.00 0.00 53 1032.1
20220812134216 16 103 1.6 4.8 0.00 0.00 0.00 51 1032.3
20220812133212 16 101 3.2 6.4 0.00 0.00 0.00 54 1032.0
20220812132710 16 101 3.2 6.4 0.00 0.00 0.00 54 1032.0
20220812132211 16 95 3.2 6.4 0.00 0.00 0.00 54 1032.0
20220812131717 16 96 4.8 11.3 0.00 0.00 0.00 51 1032.0
20220812131713 16 122 4.8 11.3 0.00 0.00 0.00 53 1032.0
20220812130939 15 140 3.2 11.3 0.00 0.00 0.00 52 1032.0
20220812130830 15 111 3.2 6.4 0.00 0.00 0.00 52 1032.0
20220812125938 15 110 3.2 6.4 0.00 0.00 0.00 51 1031.9
20220812125442 15 110 3.2 9.7 0.00 0.00 0.00 51 1032.0
20220812125206 15 110 3.2 4.8 0.00 0.00 0.00 51 1031.9
20220812124206 15 109 3.2 11.3 0.00 0.00 0.00 51 1032.0
20220812123706 15 96 3.2 11.3 0.00 0.00 0.00 50 1032.0
20220812123207 15 96 4.8 9.7 0.00 0.00 0.00 49 1031.9
20220812122701 16 84 3.2 9.7 0.00 0.00 0.00 48 1031.9
20220812122154 16 47 4.8 11.3 0.00 0.00 0.00 47 1031.6
20220812121920 16 51 4.8 11.3 0.00 0.00 0.00 46 1031.6
20220812121643 17 326 4.8 14.5 0.00 0.00 0.00 45 1031.5
20220812120635 17 311 8.0 14.5 0.00 0.00 0.00 44 1031.5
20220812120359 16 280 11.3 16.1 0.00 0.00 0.00 45 1031.3
20220812115623 16 264 11.3 22.5 0.00 0.00 0.00 45 1031.3
20220812115353 16 252 12.9 22.5 0.00 0.00 0.00 45 1031.3
20220812114611 16 251 14.5 20.9 0.00 0.00 0.00 46 1031.3
20220812114438 16 263 14.5 20.9 0.00 0.00 0.00 46 1031.3
20220812114348 16 296 14.5 24.1 0.00 0.00 0.00 45 1031.3
20220812113055 16 290 16.1 24.1 0.00 0.00 0.00 45 1031.2
20220812113050 17 275 16.1 24.1 0.00 0.00 0.00 45 1031.2
20220812112042 16 237 16.1 29.0 0.00 0.00 0.00 45 1031.2
20220812111911 16 291 16.1 29.0 0.00 0.00 0.00 45 1031.3
20220812111815 16 281 16.1 25.7 0.00 0.00 0.00 45 1031.2
20220812110749 16 248 17.7 24.1 0.00 0.00 0.00 45 1031.1
20220812110624 17 310 17.7 25.7 0.00 0.00 0.00 45 1031.1
20220812105511 16 279 17.7 24.1 0.00 0.00 0.00 45 1031.1
20220812105005 17 289 17.7 25.7 0.00 0.00 0.00 45 1031.1
20220812104458 17 246 17.7 25.7 0.00 0.00 0.00 45 1031.1
20220812103954 17 263 17.7 27.4 0.00 0.00 0.00 44 1031.1
20220812103948 17 261 17.7 29.0 0.00 0.00 0.00 44 1031.1
20220812103211 17 291 17.7 29.0 0.00 0.00 0.00 44 1031.1
20220812102435 17 0 17.7 27.4 0.00 0.00 0.00 44 1030.9
20220812101929 17 265 19.3 27.4 0.00 0.00 0.00 44 1030.8
20220812101700 17 0 17.7 32.2 0.00 0.00 0.00 44 1030.8
20220812101201 17 238 17.7 32.2 0.00 0.00 0.00 43 1030.9
20220812101052 17 286 20.9 32.2 0.00 0.00 0.00 43 1030.9
20220812095926 17 235 19.3 32.2 0.00 0.00 0.00 43 1030.9
20220812095435 17 288 17.7 25.7 0.00 0.00 0.00 42 1030.9
20220812095425 17 289 17.7 29.0 0.00 0.00 0.00 43 1030.9
20220812094926 17 252 17.7 27.4 0.00 0.00 0.00 42 1030.9
20220812093926 17 234 17.7 25.7 0.00 0.00 0.00 42 1030.9
20220812093656 17 259 17.7 24.1 0.00 0.00 0.00 43 1031.1
20220812093156 17 305 16.1 24.1 0.00 0.00 0.00 43 1031.1
20220812092657 17 288 16.1 24.1 0.00 0.00 0.00 43 1030.9
20220812092157 17 292 16.1 22.5 0.00 0.00 0.00 42 1030.9
20220812092048 17 275 16.1 22.5 0.00 0.00 0.00 42 1030.9
20220812091157 17 264 16.1 22.5 0.00 0.00 0.00 43 1031.1
20220812090656 17 262 14.5 22.5 0.00 0.00 0.00 43 1031.1
20220812085926 17 279 14.5 20.9 0.00 0.00 0.00 43 1031.1
20220812085427 17 286 12.9 19.3 0.00 0.00 0.00 43 1031.1
20220812084921 17 286 12.9 19.3 0.00 0.00 0.00 43 1031.1
20220812084644 17 275 14.5 19.3 0.00 0.00 0.00 44 1031.1
20220812084147 17 263 14.5 20.9 0.00 0.00 0.00 46 1031.1
20220812083804 16 260 11.3 17.7 0.00 0.00 0.00 48 1030.8
20220812083657 16 299 12.9 20.9 0.00 0.00 0.00 48 1030.9
20220812082420 16 255 9.7 14.5 0.00 0.00 0.00 48 1030.7
20220812082415 16 294 9.7 16.1 0.00 0.00 0.00 48 1030.7
20220812081414 16 281 9.7 14.5 0.00 0.00 0.00 48 1030.7
20220812080916 16 286 8.0 14.5 0.00 0.00 0.00 47 1030.7
20220812080412 16 263 6.4 11.3 0.00 0.00 0.00 47 1030.7
20220812075411 16 296 8.0 14.5 0.00 0.00 0.00 46 1030.8
20220812074913 16 298 6.4 14.5 0.00 0.00 0.00 46 1030.8
20220812074412 16 284 8.0 14.5 0.00 0.00 0.00 46 1030.8
20220812073912 16 285 8.0 16.1 0.00 0.00 0.00 45 1030.7
20220812073643 17 301 9.7 17.7 0.00 0.00 0.00 45 1030.7
20220812072913 17 279 11.3 17.7 0.00 0.00 0.00 44 1030.7
20220812072648 17 261 11.3 16.1 0.00 0.00 0.00 44 1030.7
20220812072412 17 278 11.3 17.7 0.00 0.00 0.00 44 1030.7
20220812072039 17 0 11.3 16.1 0.00 0.00 0.00 44 1030.7
20220812071408 17 283 11.3 17.7 0.00 0.00 0.00 43 1030.8
20220812070402 17 264 11.3 17.7 0.00 0.00 0.00 43 1030.8
20220812070357 17 275 9.7 16.1 0.00 0.00 0.00 43 1030.8
20220812065849 17 312 9.7 17.7 0.00 0.00 0.00 42 1030.8
20220812065114 17 259 11.3 17.7 0.00 0.00 0.00 42 1030.9
20220812064336 17 288 12.9 17.7 0.00 0.00 0.00 42 1030.9
20220812063837 17 282 12.9 17.7 0.00 0.00 0.00 43 1030.8
20220812063336 17 277 11.3 17.7 0.00 0.00 0.00 42 1030.9
20220812063106 18 280 9.7 17.7 0.00 0.00 0.00 42 1031.1
20220812062607 18 336 11.3 17.7 0.00 0.00 0.00 42 1031.1
20220812061836 18 295 12.9 19.3 0.00 0.00 0.00 42 1031.1
20220812061735 18 279 16.1 25.7 0.00 0.00 0.00 41 1030.9
20220812061622 18 0 14.5 20.9 0.00 0.00 0.00 41 1031.1
20220812060953 18 243 16.1 25.7 0.00 0.00 0.00 41 1030.9
20220812055835 18 0 17.7 25.7 0.00 0.00 0.00 41 1030.8
20220812055335 18 324 17.7 25.7 0.00 0.00 0.00 41 1030.8
20220812055225 18 278 16.1 24.1 0.00 0.00 0.00 40 1030.9
20220812055114 18 269 16.1 24.1 0.00 0.00 0.00 41 1030.9
20220812054455 18 277 16.1 22.5 0.00 0.00 0.00 40 1030.9
20220812053330 18 276 16.1 24.1 0.00 0.00 0.00 40 1030.9
20220812053323 18 0 17.7 24.1 0.00 0.00 0.00 40 1030.8
20220812052321 18 254 17.7 24.1 0.00 0.00 0.00 40 1030.9
20220812051806 18 265 16.1 22.5 0.00 0.00 0.00 40 1030.8
20220812051301 18 281 16.1 24.1 0.00 0.00 0.00 40 1030.8
20220812050754 18 259 16.1 24.1 0.00 0.00 0.00 40 1030.9
20220812050248 18 284 16.1 22.5 0.00 0.00 0.00 40 1030.9
20220812045749 18 263 14.5 20.9 0.00 0.00 0.00 41 1030.9
20220812045742 18 245 16.1 24.1 0.00 0.00 0.00 41 1030.9
20220812045644 18 265 16.1 24.1 0.00 0.00 0.00 41 1030.9
20220812044454 18 281 14.5 27.4 0.00 0.00 0.00 41 1030.9
20220812043719 18 287 16.1 27.4 0.00 0.00 0.00 40 1030.9
20220812043439 18 0 16.1 25.7 0.00 0.00 0.00 41 1031.1
20220812043313 18 265 16.1 25.7 0.00 0.00 0.00 40 1030.9
20220812042200 18 263 17.7 25.7 0.00 0.00 0.00 41 1031.1
20220812041657 18 240 17.7 25.7 0.00 0.00 0.00 42 1031.1
20220812041430 18 292 16.1 24.1 0.00 0.00 0.00 43 1031.1
20220812041358 18 256 16.1 27.4 0.00 0.00 0.00 42 1031.1
20220812041151 18 236 17.7 27.4 0.00 0.00 0.00 42 1031.2
20220812035903 19 296 17.7 27.4 0.00 0.00 0.00 43 1031.1
20220812035124 18 286 17.7 27.4 0.00 0.00 0.00 43 1031.2
20220812034618 18 264 14.5 25.7 0.00 0.00 0.00 45 1031.1
20220812034344 18 263 9.7 17.7 0.00 0.00 0.00 46 1031.1
20220812033606 18 286 8.0 11.3 0.00 0.00 0.00 46 1031.1
20220812033432 18 264 6.4 9.7 0.00 0.00 0.00 47 1030.9
20220812033336 18 290 4.8 11.3 0.00 0.00 0.00 48 1030.9
20220812032710 19 24 3.2 6.4 0.00 0.00 0.00 47 1030.8
20220812032444 18 245 3.2 11.3 0.00 0.00 0.00 48 1030.8
20220812031035 19 258 3.2 8.0 0.00 0.00 0.00 46 1030.8
20220812030800 18 213 3.2 8.0 0.00 0.00 0.00 47 1030.8
20220812030023 18 155 6.4 14.5 0.00 0.00 0.00 48 1030.8
20220812025749 19 219 9.7 17.7 0.00 0.00 0.00 47 1030.7
20220812025017 19 261 11.3 17.7 0.00 0.00 0.00 46 1030.6
20220812024506 19 257 11.3 17.7 0.00 0.00 0.00 46 1030.6
20220812024236 20 277 11.3 16.1 0.00 0.00 0.00 46 1030.7
20220812023454 19 287 11.3 16.1 0.00 0.00 0.00 46 1030.6
20220812022947 19 0 8.0 14.5 0.00 0.00 0.00 47 1030.6
20220812022442 19 303 8.0 12.9 0.00 0.00 0.00 47 1030.6
20220812022206 19 280 9.7 12.9 0.00 0.00 0.00 47 1030.4
20220812022055 20 262 8.0 12.9 0.00 0.00 0.00 46 1030.3
20220812021832 20 294 6.4 11.3 0.00 0.00 0.00 45 1030.3
20220812020927 20 288 8.0 11.3 0.00 0.00 0.00 45 1030.2
20220812020543 20 293 6.4 11.3 0.00 0.00 0.00 45 1030.4
20220812015424 20 291 6.4 9.7 0.00 0.00 0.00 44 1030.3
20220812015153 21 291 6.4 9.7 0.00 0.00 0.00 44 1030.3
20220812014424 21 313 4.8 8.0 0.00 0.00 0.00 44 1030.4
20220812013923 21 344 4.8 8.0 0.00 0.00 0.00 43 1030.3
20220812013153 21 344 4.8 6.4 0.00 0.00 0.00 40 1030.3
20220812012423 21 344 1.6 6.4 0.00 0.00 0.00 39 1030.3
20220812011924 21 53 0.0 3.2 0.00 0.00 0.00 40 1030.0
20220812011655 22 53 1.6 3.2 0.00 0.00 0.00 37 1030.2
20220812011151 22 53 1.6 3.2 0.00 0.00 0.00 36 1030.2
20220812010653 22 53 1.6 4.8 0.00 0.00 0.00 35 1030.3
20220812005923 22 53 1.6 6.4 0.00 0.00 0.00 38 1030.4
20220812005420 22 53 3.2 6.4 0.00 0.00 0.00 35 1030.3
20220812005152 22 54 4.8 9.7 0.00 0.00 0.00 38 1030.4
20220812004646 22 44 4.8 9.7 0.00 0.00 0.00 35 1030.4
20220812003914 23 52 4.8 14.5 0.00 0.00 0.00 34 1030.4
20220812003414 23 65 6.4 16.1 0.00 0.00 0.00 32 1030.4
20220812002915 23 96 6.4 16.1 0.00 0.00 0.00 35 1030.3
20220812002415 23 47 4.8 14.5 0.00 0.00 0.00 33 1030.3
20220812001915 23 65 4.8 14.5 0.00 0.00 0.00 34 1030.3
20220812001646 24 70 4.8 14.5 0.00 0.00 0.00 34 1030.6
20220812001147 24 69 6.4 12.9 0.00 0.00 0.00 35 1030.4
20220812000417 24 103 6.4 14.5 0.00 0.00 0.00 34 1030.6
20220812000144 24 71 6.4 16.1 0.00 0.00 0.00 38 1030.4
20220811235410 24 84 4.8 16.1 0.00 0.00 0.00 38 1030.6
20220811234912 24 98 6.4 16.1 0.00 0.00 0.00 37 1030.6
20220811234643 24 99 6.4 12.9 0.00 0.00 0.00 36 1030.4
20220811233914 25 61 6.4 16.1 0.00 0.00 0.00 35 1030.7
20220811233909 24 88 6.4 16.1 0.00 0.00 0.00 36 1030.7
20220811232916 24 62 6.4 12.9 0.00 0.00 0.00 36 1030.9
20220811232910 24 71 4.8 14.5 0.00 0.00 0.00 38 1030.8
20220811232528 24 65 6.4 12.9 0.00 0.00 0.00 35 1030.8
20220811231409 24 53 4.8 14.5 0.00 0.00 0.00 36 1030.9
20220811231405 24 79 6.4 12.9 0.00 0.00 0.00 35 1030.9
20220811231026 24 81 6.4 17.7 0.00 0.00 0.00 36 1030.9
20220811230357 24 103 6.4 17.7 0.00 0.00 0.00 34 1030.9
20220811225347 24 78 6.4 16.1 0.00 0.00 0.00 35 1030.9
20220811225111 25 113 8.0 16.1 0.00 0.00 0.00 38 1030.9
20220811224335 25 111 8.0 19.3 0.00 0.00 0.00 35 1030.9
20220811223828 25 70 8.0 19.3 0.00 0.00 0.00 35 1030.9
20220811223324 25 92 8.0 16.1 0.00 0.00 0.00 35 1030.8
20220811223316 25 54 8.0 16.1 0.00 0.00 0.00 34 1030.8
20220811222919 25 0 8.0 14.5 0.00 0.00 0.00 32 1030.8
20220811222306 25 109 8.0 16.1 0.00 0.00 0.00 33 1030.8
20220811221757 25 88 8.0 19.3 0.00 0.00 0.00 31 1030.8
20220811221402 25 77 8.0 19.3 0.00 0.00 0.00 34 1030.8
20220811220247 25 80 8.0 19.3 0.00 0.00 0.00 36 1030.8
20220811215741 26 102 9.7 17.7 0.00 0.00 0.00 31 1030.9
20220811215235 27 61 12.9 20.9 0.00 0.00 0.00 32 1030.9
20220811214731 27 0 12.9 20.9 0.00 0.00 0.00 30 1031.1
20220811214725 27 42 12.9 24.1 0.00 0.00 0.00 30 1031.1
20220811213717 27 0 11.3 24.1 0.00 0.00 0.00 32 1031.1
20220811213211 27 0 9.7 24.1 0.00 0.00 0.00 29 1031.1
20220811212706 27 71 9.7 24.1 0.00 0.00 0.00 32 1031.1
20220811212200 27 86 9.7 22.5 0.00 0.00 0.00 30 1031.2
20220811211925 27 53 8.0 17.7 0.00 0.00 0.00 30 1031.3
20220811211419 28 0 9.7 20.9 0.00 0.00 0.00 31 1031.3
20220811210642 28 85 9.7 20.9 0.00 0.00 0.00 28 1031.3
20220811210636 28 0 9.7 24.1 0.00 0.00 0.00 30 1031.2
20220811205630 28 77 9.7 24.1 0.00 0.00 0.00 31 1031.3
20220811205123 28 64 11.3 24.1 0.00 0.00 0.00 29 1031.3
20220811204853 28 71 11.3 24.1 0.00 0.00 0.00 27 1031.3
20220811204615 27 68 11.3 24.1 0.00 0.00 0.00 29 1031.5
20220811203835 27 80 11.3 24.1 0.00 0.00 0.00 30 1031.5
20220811203059 27 59 11.3 24.1 0.00 0.00 0.00 29 1031.5
20220811202553 27 0 12.9 24.1 0.00 0.00 0.00 29 1031.6
20220811202421 27 80 9.7 24.1 0.00 0.00 0.00 30 1031.6
20220811202326 27 91 11.3 24.1 0.00 0.00 0.00 32 1031.9
20220811201036 27 121 11.3 22.5 0.00 0.00 0.00 29 1031.7
20220811200759 28 115 11.3 22.5 0.00 0.00 0.00 30 1031.9
20220811200254 27 127 11.3 22.5 0.00 0.00 0.00 30 1031.9
20220811195520 27 103 11.3 20.9 0.00 0.00 0.00 33 1032.0
20220811195513 27 0 9.7 20.9 0.00 0.00 0.00 33 1032.3
20220811194512 28 0 9.7 24.1 0.00 0.00 0.00 29 1032.1
20220811194243 28 0 12.9 24.1 0.00 0.00 0.00 30 1032.0
20220811193512 27 70 12.9 24.1 0.00 0.00 0.00 32 1032.1
20220811193011 27 111 9.7 24.1 0.00 0.00 0.00 31 1032.1
20220811192512 28 109 9.7 22.5 0.00 0.00 0.00 33 1032.3
20220811192249 28 74 9.7 24.1 0.00 0.00 0.00 32 1032.3
20220811192011 28 80 11.3 24.1 0.00 0.00 0.00 32 1032.3
20220811191244 27 113 9.7 22.5 0.00 0.00 0.00 33 1032.1
20220811190512 28 59 12.9 25.7 0.00 0.00 0.00 29 1032.1
20220811190013 28 91 14.5 25.7 0.00 0.00 0.00 30 1032.1
20220811185511 28 89 11.3 24.1 0.00 0.00 0.00 29 1032.3
20220811185012 28 68 11.3 24.1 0.00 0.00 0.00 31 1032.1
20220811184741 27 86 11.3 24.1 0.00 0.00 0.00 32 1032.3
20220811184009 28 0 12.9 22.5 0.00 0.00 0.00 30 1032.3
20220811183515 26 0 11.3 19.3 0.00 0.00 0.00 32 1032.1
20220811183510 27 62 12.9 22.5 0.00 0.00 0.00 33 1032.1
20220811183114 27 0 11.3 20.9 0.00 0.00 0.00 31 1032.3
20220811182237 27 99 9.7 20.9 0.00 0.00 0.00 32 1032.3
20220811182125 27 80 9.7 20.9 0.00 0.00 0.00 34 1032.3
20220811181627 27 76 9.7 20.9 0.00 0.00 0.00 34 1032.3